TimeCDT,TemperatureF,Dew PointF,Humidity,Sea Level PressureIn,VisibilityMPH,Wind Direction,Wind SpeedMPH,Gust SpeedMPH,PrecipitationIn,Events,Conditions,WindDirDegrees,DateUTC
2:53 AM,75.0,71.1,87,29.98,10.0,SSE,5.8,-,N/A,,Overcast,160,2014-06-04 07:53:00
3:53 AM,73.0,71.1,93,29.97,8.0,South,3.5,-,N/A,,Partly Cloudy,190,2014-06-04 08:53:00
4:33 AM,71.6,69.8,94,29.99,7.0,South,3.5,-,N/A,,Scattered Clouds,190,2014-06-04 09:33:00
4:53 AM,72.0,70.0,93,29.99,7.0,South,3.5,-,N/A,,Mostly Cloudy,180,2014-06-04 09:53:00
5:53 AM,71.1,70.0,96,30.00,4.0,SSW,3.5,-,N/A,,Overcast,210,2014-06-04 10:53:00
6:26 AM,71.6,71.6,100,30.00,3.0,South,3.5,-,N/A,,Overcast,190,2014-06-04 11:26:00
6:53 AM,73.0,71.1,93,30.00,3.0,Calm,Calm,-,N/A,,Overcast,0,2014-06-04 11:53:00
7:40 AM,73.4,71.6,94,30.01,6.0,WSW,3.5,-,N/A,,Overcast,240,2014-06-04 12:40:00
7:53 AM,75.0,71.1,87,30.01,7.0,Variable,4.6,-,N/A,,Mostly Cloudy,0,2014-06-04 12:53:00
8:15 AM,75.2,71.6,89,30.01,8.0,SSW,3.5,-,N/A,,Scattered Clouds,200,2014-06-04 13:15:00
8:53 AM,79.0,70.0,74,30.01,10.0,Variable,4.6,-,N/A,,Clear,0,2014-06-04 13:53:00
9:53 AM,82.0,66.9,60,30.02,10.0,SSW,4.6,-,N/A,,Clear,200,2014-06-04 14:53:00
10:53 AM,84.0,66.9,56,30.02,10.0,Variable,5.8,-,N/A,,Partly Cloudy,0,2014-06-04 15:53:00
11:53 AM,84.0,66.9,56,29.99,10.0,SSW,5.8,-,N/A,,Mostly Cloudy,210,2014-06-04 16:53:00
12:53 PM,86.0,66.9,53,29.98,10.0,Variable,3.5,-,N/A,,Mostly Cloudy,0,2014-06-04 17:53:00
1:53 PM,88.0,66.9,49,29.94,10.0,South,6.9,-,N/A,,Partly Cloudy,180,2014-06-04 18:53:00
2:53 PM,88.0,68.0,51,29.90,10.0,South,9.2,-,N/A,,Scattered Clouds,170,2014-06-04 19:53:00
3:53 PM,89.1,66.9,48,29.88,10.0,SSW,11.5,-,N/A,,Partly Cloudy,210,2014-06-04 20:53:00
4:53 PM,88.0,66.9,49,29.88,10.0,SW,9.2,-,N/A,,Clear,220,2014-06-04 21:53:00
5:53 PM,86.0,68.0,55,29.88,10.0,SSW,5.8,-,N/A,,Scattered Clouds,210,2014-06-04 22:53:00
6:53 PM,84.9,69.1,59,29.88,10.0,SSW,8.1,-,N/A,,Partly Cloudy,210,2014-06-04 23:53:00
7:53 PM,82.0,69.1,65,29.87,10.0,South,5.8,-,N/A,,Clear,180,2014-06-05 00:53:00
8:53 PM,80.1,70.0,71,29.88,10.0,Calm,Calm,-,N/A,,Clear,0,2014-06-05 01:53:00
9:53 PM,79.0,70.0,74,29.90,10.0,Calm,Calm,-,N/A,,Clear,0,2014-06-05 02:53:00
10:53 PM,75.9,71.1,85,29.91,10.0,Calm,Calm,-,N/A,,Clear,0,2014-06-05 03:53:00
11:53 PM,75.0,70.0,84,29.89,10.0,SSW,3.5,-,N/A,,Clear,200,2014-06-05 04:53:00